Location: Moscow
(38.8570°N, 84.2291°W)
Time: 18:54:25
(UTC+00:00)

Cosmos 371 Rocket - Pass Details

Date: 15 November 2025
Orbit: 674 x 690 km, 74.0° (Epoch: 12 December)

Event Time Altitude Azimuth Distance (km) Brightness Sun altitude
Rises 23:23:22 0° 164° (SSE) 3,021 6.6 -12.0°
Reaches altitude 10° 23:26:03 10° 150° (SSE) 2,115 5.6 -12.5°
Maximum altitude 23:29:45 23° 99° (E) 1,444 4.4 -13.2°
Enters shadow 23:31:09 20° 74° (ENE) 1,562 4.5 -13.4°
